Regional Weather Roundup
Issued by NWS

Home | Current Version | Previous Version | Text Only | Print | Product List | Glossary Off
Versions: 1 2 3 4 5 6 7 8 9 10 11 12 13 14 15 16 17 18 19 20 21 22 23 24 25 26 27 28 29 30 31 32 33 34 35 36 37 38 39 40 41 42 43 44 45 46 47 48 49 50

000
ASUS43 KDTX 280501
RWRMI
MICHIGAN HOURLY REGIONAL WEATHER ROUNDUP
NATIONAL WEATHER SERVICE DETROIT/PONTIAC MI
1200 AM EST FRI NOV 28 2014

NOTE: "FAIR" INDICATES FEW OR NO CLOUDS BELOW 12,000 FEET WITH NO
SIGNIFICANT WEATHER AND/OR OBSTRUCTION TO VISIBILITY.

MIZ047>049-052>055-059>063-066>070-074>076-081>083-280600-
SOUTHEAST LOWER MICHIGAN

CITY           SKY/WX    TMP DP  RH WIND       PRES   REMARKS
ADRIAN         CLEAR     20  13  74 NW5       30.33R WCI  13
ALMA           CLOUDY    19   7  61 W7        30.33S WCI   9
ANN ARBOR      MOCLDY    21   8  57 NW9       30.30S WCI  11
BAD AXE        CLOUDY    20  12  72 NW13      30.28S WCI   7
CARO           CLOUDY    21  12  68 W9        30.29S WCI  11
DETROIT CITY   PTCLDY    25   9  50 NW9       30.30R WCI  15
DETROIT        PTCLDY    22  11  62 W10       30.31R WCI  11
FLINT          PTCLDY    20   7  57 NW9       30.31S WCI   9
GROSSE ILE     CLEAR     25  12  58 NW14G23   30.30R WCI  13
HILLSDALE      MOCLDY    20  13  76 CALM      30.30S
HOWELL         CLOUDY    21  12  66 NW10      30.29S WCI  10

CITY           SKY/WX    TMP DP  RH WIND       PRES   REMARKS
JACKSON        CLEAR     17   7  64 NW7       30.31R WCI   8
LAMBERTVILLE   CLEAR     23  16  74 CALM      30.33S
LANSING        CLOUDY    20   7  57 NW8       30.33R WCI  10
LAPEER         CLOUDY    21  10  61 NW6G16    30.29S WCI  14
MASON          CLOUDY    22  10  60 NW7G16    30.31S WCI  13
MONROE         CLEAR     23  14  68 NW9       30.31R WCI  13
MT. CLEMENS    MOCLDY    24  11  57 NW10      30.27S WCI  14
PONTIAC        FLURRIES  21   9  59 NW14      30.27S WCI   8
PORT HOPE        N/A     20   7  57 W10G21    30.26S WCI   9
PORT HURON     CLOUDY    23  10  58 NW13G18   30.28S WCI  11
TRI CITIES     CLOUDY    21   8  57 W8        30.32S WCI  11
TROY           MOCLDY    25   9  49 W9G17     30.31R WCI  16
SAGINAW HB     CLOUDY    23  10  58 W8        30.31S WCI  14
$$
MIZ043>046-050>051-056>058-064>065-071>073-077>080-280600-
SOUTHWEST LOWER MICHIGAN

CITY           SKY/WX    TMP DP  RH WIND       PRES   REMARKS
BATTLE CREEK   CLOUDY    22  13  68 NW7       30.33S WCI  13
BENTON HARBOR  CLOUDY    24  12  60 CALM      30.35F
BIG RAPIDS     FLURRIES  19  16  91 W3        30.29F
COLDWATER      CLOUDY    24  17  76 NW7       30.33S WCI  16
FREMONT        CLOUDY    18  13  79 CALM      30.32F
HOLLAND        CLOUDY    21  13  71 E3        30.35F
GRAND RAPIDS   PTCLDY    18   9  68 NW3       30.34S
IONIA          MOCLDY    20  11  66 NW5       30.32S WCI  14
KALAMAZOO      CLOUDY    21  15  78 N6        30.34S WCI  13
LUDINGTON      CLOUDY    19  13  75 CALM      30.33S
MARSHALL       CLOUDY    19  13  74 NW3       30.32S
MOUNT PLEASANT CLEAR     18   9  66 W5        30.31S WCI  11
MUSKEGON       CLOUDY    21  13  71 E3        30.34F
SOUTH HAVEN    CLOUDY    26  13  60 W3        30.35S
$$
MIZ016>042-280600-
NORTHERN LOWER MICHIGAN

CITY           SKY/WX    TMP DP  RH WIND       PRES   REMARKS
ALPENA         MOCLDY    15   8  73 W9G18     30.26S WCI   3
BEAVER ISLAND  CLOUDY    19  12  74 W6        30.29R WCI  10
BELLAIRE       CLOUDY    17  14  88 CALM      30.30S
CADILLAC       FLURRIES  13  10  87 W3        30.25S
CHARLEVOIX     CLOUDY    19  10  67 N9        30.30F WCI   8
FRANKFORT      CLOUDY    19  13  74 NW3       30.32S
GAYLORD        CLOUDY    14   9  80 CALM      30.21F
GRAYLING       FLURRIES  16  11  83 W3        30.25F
HARBOR SPRINGS CLOUDY    17   9  70 NW6       30.27F WCI   9
HOUGHTON LAKE  CLOUDY    16  11  80 NW6       30.26F WCI   7
MANISTEE       CLOUDY    19  12  73 CALM      30.32S
OSCODA         MOCLDY    15   7  68 NW7       30.28S WCI   6
PELLSTON       LGT SNOW  17  10  74 NW9       30.27F WCI   6
ROGERS CITY    FLURRIES  17  12  80 W9        30.27S WCI   6
TRAVERSE CITY  CLOUDY    18  11  74 W6        30.30S WCI  10
$$
MIZ007>008-015-280600-
EASTERN UPPER MICHIGAN

CITY           SKY/WX    TMP DP  RH WIND       PRES   REMARKS
KINROSS        CLEAR      3   1  92 E5        30.25F WCI  -6
MACKINAC ISLAN PTCLDY    16  10  77 NW10G17   30.24F WCI   4
NEWBERRY       MOCLDY     9   8  97 W6        30.24S WCI  -1
S. S. MARIE    CLEAR      2  -4  76 CALM      30.23F
MUNISING         N/A     13   5  70 VRB3      30.29S
$$
MIZ004>006-011>014-085-280600-
CENTRAL UPPER MICHIGAN

CITY           SKY/WX    TMP DP  RH WIND       PRES   REMARKS
MANISTIQUE     PTCLDY     6   2  83 W8        30.30R WCI  -7
ESCANABA       MOCLDY     1  -2  85 NW5       30.31F WCI  -8
MENOMINEE      PTCLDY     0  -4  85 CALM      30.32F
SAWYER-GWINN   MOCLDY     1  -3  83 W7        30.25F WCI -11
$$
MIZ001>003-009>011-084-280600-
WESTERN UPPER MICHIGAN

CITY           SKY/WX    TMP DP  RH WIND       PRES   REMARKS
IRON MOUNTAIN  PTCLDY    -6 -11  79 NW3       30.28S
HOUGHTON       FLURRIES   6   2  83 SW5       30.24F WCI  -3
COPPER HARBOR    N/A     12   6  77 VRB6      30.28S WCI   3
IRONWOOD       MOCLDY    -9  -9 100 CALM      30.24S
$$

ABBREVIATIONS USED IN REMARKS
   TC - TEMPERATURE IN CELSIUS
  WCI - WIND CHILL INDEX
   HX - HEAT INDEX
  VSB - VISIBILITY




USA.gov is the U.S. government's official web portal to all federal, state and local government web resources and services.